Terug naar catalogus

CZ-6A DEB

ActiefPO
NORAD 60799·DEBRIS·🇨🇳 China

Gelanceerd Aug 6, 2024 vanaf Taiyuan Satellite Launch Center

Loading…

Volgende Passages (komende 24 uur)

TLE

VersSource: Space-Track

Epoch: Sep 14, 2026, 11:30 UTC

1 60799U 24140GA  26257.47930443  .00000323  00000-0  67303-4 0  9999
2 60799  88.9548 255.6610 0111396 308.6670  50.4611 14.53781908110893

Volg CZ-6A DEB in realtime met AllMySat

Download on the App Store